Regional Weather Roundup
Issued by NWS Cleveland, OH

Home | Current Version | Previous Version | Text Only | Print | Product List | Glossary Off
Versions: 1 2 3 4 5 6 7 8 9 10 11 12 13 14 15 16 17 18 19 20 21 22 23 24 25 26 27 28 29 30 31 32 33 34 35 36 37 38 39 40 41 42 43 44 45 46 47 48 49 50

000
ASUS41 KCLE 162110
RWRCLE
OHIO REGIONAL WEATHER ROUNDUP
NATIONAL WEATHER SERVICE WILMINGTON, OH
400 PM EST TUE JAN 16 2018

NOTE: "FAIR" INDICATES FEW OR NO CLOUDS BELOW 12,000 FEET WITH NO
SIGNIFICANT WEATHER AND/OR OBSTRUCTIONS TO VISIBILITY.

OHZ001>008-015>018-024>027-034-035-043-044-162200-
   NORTHWEST OHIO

CITY           SKY/WX    TMP DP  RH WIND       PRES   REMARKS
DEFIANCE       FAIR       6  -2  69 SW8       30.45R WCI  -7
FINDLAY        FAIR       5  -3  69 W14       30.43S WCI -12
TOLEDO EXPRESS FAIR       7   0  73 W10       30.43R WCI  -8
TOLEDO EXEC    FAIR       7   0  73 SW10      30.44S WCI  -8
LIMA           FAIR       4  -2  76 W13       30.43R WCI -13
$$

OHZ009>014-019>023-028>033-038-089-162200-
   NORTHEAST OHIO

CITY           SKY/WX    TMP DP  RH WIND       PRES   REMARKS
CLE-HOPKINS    CLOUDY    13   3  64 SW10      30.43R WCI   0
CLE-LAKEFRONT  CLOUDY    14   4  64 SW12      30.41S WCI   0
CUY CO. ARPT   PTSUNNY   14   5  67 W14       30.40R WCI  -1
LORAIN-ELYRIA  FAIR       8  -2  63 W10       30.42R WCI  -6
ASHTABULA      PTSUNNY   13   4  67 W10       30.38R WCI   0
AKRON-CANTON   FAIR      11   2  67 SW8       30.37R WCI  -1
WOOSTER        PTSUNNY   11   2  67 W5        30.39R WCI   3
MANSFIELD      FAIR       8   0  69 SW8       30.37S WCI  -4
YOUNGSTOWN     FAIR      14   5  67 W10       30.35R WCI   1
$$

OHZ042-051>053-060>062-070>072-077>081-162200-
  SOUTHWEST OHIO

CITY           SKY/WX    TMP DP  RH WIND       PRES   REMARKS
CINC-COVINGTON FAIR      11   1  64 W6        30.48R WCI   1
CINC-LUNKEN    FAIR      12   2  64 SW8       30.54R WCI   0
HAMILTON       PTSUNNY   11   0  61 W7        30.52R WCI   0
DAYTON         FAIR       6   0  76 W12       30.46R WCI  -9
WRIGHT-PAT AFB PTSUNNY    9  -2  59 W12       30.47R WCI  -5
DAYTON GENERAL CLOUDY    10   0  63 SW9       30.46R WCI  -3
WILMINGTON     PTSUNNY    9   0  67 W12       30.45R WCI  -6
$$

OHZ036-037-039>041-045>050-054>059-063>069-073>076-082>088-162200-
  CENTRAL AND SOUTHEAST OHIO

CITY           SKY/WX    TMP DP  RH WIND       PRES   REMARKS
COLUMBUS       FAIR      10   1  67 W6        30.45R WCI   0
OSU AIRPORT    PTSUNNY    8   1  73 W9        30.44R WCI  -5
BOLTON FIELD   SUNNY      9   0  66 W9        30.46R WCI  -5
RICKENBACK AFB FAIR       8  -1  67 W8        30.47R WCI  -5
NEWARK         FAIR      10   0  63 SW9       30.43R WCI  -3
MARION         LGT SNOW   8   0  69 W8        30.42S WCI  -4
LANCASTER      FAIR       9  -1  64 W9        30.46R WCI  -4
ZANESVILLE     FAIR      12   2  64 W8        30.42S WCI   0
NEW PHILLY     FAIR      14   5  67 W8        30.42R WCI   3
$$




USA.gov is the U.S. government's official web portal to all federal, state and local government web resources and services.